Weather History for Mackall AAF, NC

Change the Weather History Date:

Monday, November 12, 2012

  Actual Average Record
Temperature  
Mean Temperature 59 °F -  
Max Temperature 74 °F 64 °F 80 °F (2003)
Min Temperature 44 °F 41 °F 24 °F (2011)
Degree Days  
Heating Degree Days 6    
Growing Degree Days 9 (Base 50)    
Moisture  
Dew Point 48 °F    
Average Humidity 93    
Maximum Humidity 100    
Minimum Humidity 58    
Precipitation  
Precipitation 0.00 in - - ()
Sea Level Pressure  
Sea Level Pressure 30.38 in    
Wind  
Wind Speed 2 mph (ESE)    
Max Wind Speed 12 mph    
Max Gust Speed 15 mph    
Visibility 3 miles    
Events Fog , Rain    
Averages and records for this station are not official NWS values.
T = Trace of Precipitation, MM = Missing Value Source: NWS Daily Summary

Daily Weather History Graph

Daily Weather History Graph

Search for Another Location

Airport:

Trip Planner

Search our weather history database for the weather conditions in past years. The results will help you decide how hot, cold, wet, or windy it might be!

Date:

Astronomy

Nov. 12, 2012 Rise Set
Actual Time 6:50 AM EST 5:13 PM EST
Civil Twilight 6:23 AM EST 5:40 PM EST
Nautical Twilight 5:52 AM EST 6:11 PM EST
Astronomical Twilight 5:22 AM EST 6:41 PM EST
Moon 5:15 AM EST (11/12) 4:16 PM EST (11/12)
Length of Visible Light 11h 17m
Length of Day
10h 23m
Waning Crescent, 2% of the Moon is Illuminated
Nov 12
Waning Crescent
Nov 13
New
Nov 20
First Quarter
Nov 28
Full
Dec 6
Last Quarter

Hourly Weather History & Observations

Time (EST) Temp. Windchill Dew Point Humidity Pressure Visibility Wind Dir Wind Speed Gust Speed Precip Events Conditions
12:13 AM 48.2 °F - 46.4 °F 93% 30.43 in 2.5 mi SW 1.2 mph - N/A   Clear
12:14 AM 48.2 °F - 46.4 °F 93% 30.43 in 2.0 mi Variable 1.2 mph - N/A Rain Light Rain
12:19 AM 50.0 °F - 48.2 °F 94% 30.43 in 1.8 mi Variable 1.2 mph - N/A Rain Light Rain Showers
12:21 AM 50.0 °F - 48.2 °F 94% 30.43 in 1.2 mi Calm Calm - N/A Rain Light Rain Showers
12:22 AM 50.0 °F - 48.2 °F 94% 30.43 in 1.0 mi Calm Calm - N/A Rain Light Rain Showers
12:27 AM 48.2 °F - 46.4 °F 93% 30.42 in 0.8 mi Calm Calm - N/A Fog , Rain Light Rain Showers
12:42 AM 48.2 °F - 46.4 °F 93% 30.42 in 1.0 mi Calm Calm - N/A Fog , Rain Light Rain Showers
12:43 AM 48.2 °F - 46.4 °F 93% 30.42 in 1.2 mi Variable 1.2 mph - N/A Rain Light Rain Showers
12:45 AM 48.2 °F - 46.4 °F 93% 30.42 in 1.5 mi Variable 1.2 mph - N/A Rain Light Rain Showers
12:47 AM 48.2 °F - 46.4 °F 93% 30.42 in 2.0 mi Variable 1.2 mph - N/A Rain Light Rain Showers
12:48 AM 48.2 °F - 46.4 °F 93% 30.42 in 2.5 mi Variable 1.2 mph - N/A Rain Light Rain Showers
12:49 AM 48.2 °F - 46.4 °F 93% 30.42 in 4.0 mi NNE 1.2 mph - N/A Rain Light Rain Showers
12:53 AM 48.2 °F - 46.4 °F 93% 30.42 in 2.5 mi Variable 1.2 mph - N/A Fog , Rain Light Rain Showers
12:54 AM 48.2 °F - 46.4 °F 93% 30.41 in 1.5 mi NE 1.2 mph - N/A Fog , Rain Light Rain Showers
12:55 AM 48.0 °F - 46.8 °F 95% 30.41 in 1.2 mi NNE 1.2 mph - N/A Fog , Rain Light Rain Showers
12:56 AM 48.2 °F - 46.4 °F 93% 30.41 in 1.0 mi NE 1.2 mph - N/A Rain Light Rain Showers
1:00 AM 48.2 °F - 48.2 °F 100% 30.41 in 0.8 mi Variable 1.2 mph - N/A Rain Light Rain Showers
1:10 AM 48.2 °F - 46.4 °F 93% 30.41 in 1.0 mi NW 1.2 mph - N/A Fog , Rain Light Rain Showers
1:11 AM 48.2 °F - 46.4 °F 93% 30.41 in 1.2 mi NW 1.2 mph - N/A Rain Light Rain Showers
1:12 AM 48.2 °F - 46.4 °F 93% 30.41 in 1.5 mi NW 1.2 mph - N/A Rain Light Rain Showers
1:13 AM 48.2 °F - 46.4 °F 93% 30.41 in 2.0 mi NW 1.2 mph - N/A Rain Light Rain Showers
1:16 AM 48.2 °F - 48.2 °F 100% 30.41 in 2.5 mi NNW 1.2 mph - N/A Rain Light Rain Showers
1:18 AM 48.2 °F - 46.4 °F 93% 30.41 in 3.0 mi North 1.2 mph - N/A Rain Light Rain Showers
1:23 AM 48.2 °F - 46.4 °F 93% 30.41 in 5.0 mi NNE 1.2 mph - N/A   Clear
1:33 AM 48.2 °F - 48.2 °F 100% 30.41 in 4.0 mi Variable 1.2 mph - N/A   Partly Cloudy
1:55 AM 47.3 °F - 46.0 °F 95% 30.40 in 7.0 mi Variable 1.2 mph - N/A   Partly Cloudy
1:57 AM 48.2 °F - 46.4 °F 93% 30.40 in 1.5 mi Calm Calm - N/A Fog Patches of Fog
1:58 AM 48.2 °F - 46.4 °F 93% 30.40 in 1.0 mi Calm Calm - N/A Fog Patches of Fog
2:00 AM 48.2 °F - 46.4 °F 93% 30.40 in 0.8 mi Calm Calm - N/A Fog Patches of Fog
2:01 AM 48.2 °F - 46.4 °F 93% 30.40 in 0.8 mi Calm Calm - N/A Fog , Rain Light Rain Showers
2:15 AM 46.4 °F - 46.4 °F 100% 30.40 in 1.2 mi NNE 1.2 mph - N/A Rain Light Rain Showers
2:16 AM 46.4 °F - 46.4 °F 100% 30.40 in 1.5 mi NNE 1.2 mph - N/A Rain Light Rain Showers
2:19 AM 46.4 °F - 46.4 °F 100% 30.40 in 1.8 mi North 1.2 mph - N/A Rain Light Rain Showers
2:20 AM 46.4 °F - 46.4 °F 100% 30.40 in 3.0 mi North 1.2 mph - N/A Rain Light Rain Showers
2:24 AM 46.4 °F - 46.4 °F 100% 30.40 in 4.0 mi North 1.2 mph - N/A Rain Light Rain Showers
2:26 AM 46.4 °F - 46.4 °F 100% 30.40 in 4.0 mi North 1.2 mph - N/A   Mist
2:28 AM 46.4 °F - 46.4 °F 100% 30.40 in 5.0 mi Variable 1.2 mph - N/A   Mist
2:33 AM 46.4 °F - 46.4 °F 100% 30.40 in 8.0 mi Calm Calm - N/A   Scattered Clouds
2:38 AM 46.4 °F - 44.6 °F 93% 30.40 in 1.8 mi Calm Calm - N/A   Scattered Clouds
2:39 AM 46.4 °F - 44.6 °F 93% 30.40 in 1.0 mi Variable 1.2 mph - N/A   Scattered Clouds
2:40 AM 46.4 °F - 44.6 °F 93% 30.40 in 0.8 mi SSW 1.2 mph - N/A Rain Light Rain Showers
2:48 AM 46.4 °F - 44.6 °F 93% 30.40 in 1.0 mi SSW 1.2 mph - N/A Rain Light Rain Showers
2:50 AM 46.4 °F - 44.6 °F 93% 30.40 in 3.0 mi SSW 1.2 mph - N/A Rain Light Rain Showers
2:55 AM 45.9 °F - 45.1 °F 97% 30.40 in 9.0 mi SSE 1.2 mph - N/A Rain Light Rain Showers
2:57 AM 46.4 °F - 44.6 °F 93% 30.40 in 2.5 mi SSE 1.2 mph - N/A Fog , Rain Light Rain Showers
2:58 AM 46.4 °F - 46.4 °F 100% 30.40 in 1.0 mi SSE 1.2 mph - N/A Fog , Rain Light Rain Showers
2:59 AM 46.4 °F - 46.4 °F 100% 30.40 in 0.8 mi SSE 1.2 mph - N/A Fog Patches of Fog
3:09 AM 46.4 °F - 44.6 °F 93% 30.40 in 0.5 mi West 2.3 mph - N/A Fog , Rain Light Rain Showers
3:26 AM 46.4 °F - 44.6 °F 93% 30.40 in 1.0 mi NNW 1.2 mph - N/A Fog , Rain Light Rain Showers
3:27 AM 44.6 °F - 44.6 °F 100% 30.40 in 1.2 mi NNW 2.3 mph - N/A Fog , Rain Light Rain Showers
3:28 AM 44.6 °F - 44.6 °F 100% 30.40 in 1.5 mi NNW 2.3 mph - N/A Fog , Rain Light Rain Showers
3:29 AM 44.6 °F - 44.6 °F 100% 30.40 in 1.8 mi NNW 2.3 mph - N/A Fog , Rain Light Rain Showers
3:30 AM 44.6 °F - 44.6 °F 100% 30.40 in 2.0 mi NNW 2.3 mph - N/A Fog , Rain Light Rain Showers
3:31 AM 44.6 °F - 44.6 °F 100% 30.40 in 2.5 mi NNW 2.3 mph - N/A Fog , Rain Light Rain Showers
3:32 AM 44.6 °F - 44.6 °F 100% 30.40 in 3.0 mi North 2.3 mph - N/A Fog , Rain Light Rain Showers
3:33 AM 44.6 °F - 44.6 °F 100% 30.40 in 2.5 mi North 2.3 mph - N/A Fog , Rain Light Rain Showers
3:35 AM 44.6 °F - 44.6 °F 100% 30.40 in 1.8 mi NNE 1.2 mph - N/A Fog , Rain Light Rain Showers
3:36 AM 44.6 °F - 44.6 °F 100% 30.39 in 1.5 mi NNE 1.2 mph - N/A Fog , Rain Light Rain Showers
3:37 AM 44.6 °F - 44.6 °F 100% 30.39 in 1.2 mi NNE 1.2 mph - N/A Fog Patches of Fog
3:38 AM 44.6 °F - 44.6 °F 100% 30.39 in 1.2 mi NE 1.2 mph - N/A Fog , Rain Light Rain Showers
3:40 AM 46.4 °F - 44.6 °F 93% 30.39 in 1.0 mi NE 1.2 mph - N/A Fog , Rain Light Rain Showers
3:44 AM 46.4 °F - 46.4 °F 100% 30.39 in 0.8 mi ENE 1.2 mph - N/A Fog , Rain Light Rain Showers
3:55 AM 46.2 °F - 45.7 °F 98% 30.38 in 0.5 mi South 1.2 mph - N/A Fog , Rain Light Rain Showers
3:59 AM 46.4 °F - 44.6 °F 93% 30.38 in 0.8 mi SW 1.2 mph - N/A Fog , Rain Light Rain Showers
4:00 AM 46.4 °F - 44.6 °F 93% 30.39 in 1.2 mi Variable 1.2 mph - N/A Fog , Rain Light Rain Showers
4:01 AM 46.4 °F - 44.6 °F 93% 30.39 in 1.8 mi Variable 1.2 mph - N/A Fog , Rain Light Rain Showers
4:07 AM 44.6 °F - 44.6 °F 100% 30.39 in 2.0 mi Calm Calm - N/A Fog , Rain Light Rain Showers
4:09 AM 44.6 °F - 44.6 °F 100% 30.38 in 2.5 mi Variable 1.2 mph - N/A Fog , Rain Light Rain Showers
4:10 AM 44.6 °F - 44.6 °F 100% 30.38 in 3.0 mi East 1.2 mph - N/A Fog , Rain Light Rain Showers
4:16 AM 44.6 °F - 44.6 °F 100% 30.38 in 5.0 mi Variable 1.2 mph - N/A   Partly Cloudy
4:23 AM 44.6 °F - 44.6 °F 100% 30.38 in 2.5 mi Variable 1.2 mph - N/A Fog Patches of Fog
4:24 AM 44.6 °F - 44.6 °F 100% 30.38 in 1.8 mi Variable 1.2 mph - N/A Fog Patches of Fog
4:25 AM 44.6 °F - 44.6 °F 100% 30.38 in 1.2 mi SE 1.2 mph - N/A   Clear
4:26 AM 44.6 °F - 44.6 °F 100% 30.38 in 1.0 mi SE 1.2 mph - N/A   Clear
4:27 AM 44.6 °F - 44.6 °F 100% 30.38 in 0.8 mi SE 1.2 mph - N/A Fog Fog
4:28 AM 44.6 °F - 44.6 °F 100% 30.38 in 0.8 mi SE 1.2 mph - N/A Fog , Rain Light Rain Showers
4:41 AM 44.6 °F - 44.6 °F 100% 30.38 in 1.5 mi South 2.3 mph - N/A Rain Light Rain Showers
4:42 AM 44.6 °F - 44.6 °F 100% 30.38 in 2.0 mi South 1.2 mph - N/A Rain Light Rain Showers
4:44 AM 44.6 °F - 44.6 °F 100% 30.38 in 1.8 mi SSE 2.3 mph - N/A Rain Light Rain Showers
4:45 AM 44.6 °F - 44.6 °F 100% 30.38 in 1.2 mi SSE 2.3 mph - N/A Rain Light Rain Showers
4:51 AM 44.6 °F - 44.6 °F 100% 30.38 in 1.2 mi SSE 2.3 mph - N/A Rain Light Rain Showers
4:54 AM 44.6 °F 43.1 °F 44.6 °F 100% 30.38 in 1.5 mi SE 3.5 mph - N/A Rain Light Rain Showers
4:55 AM 45.0 °F 43.5 °F 44.4 °F 98% 30.38 in 1.0 mi SE 3.5 mph - N/A Fog , Rain Light Rain Showers
6:54 AM 46.4 °F - 44.6 °F 93% 30.38 in 2.5 mi Variable 1.2 mph - N/A   Partly Cloudy
6:55 AM 45.9 °F - 45.5 °F 99% 30.38 in 2.0 mi NW 1.2 mph - N/A   Partly Cloudy
6:57 AM 46.4 °F - 46.4 °F 100% 30.38 in 1.8 mi Calm Calm - N/A   Partly Cloudy
7:04 AM 46.4 °F - 46.4 °F 100% 30.39 in 2.5 mi NW 1.2 mph - N/A   Partly Cloudy
7:05 AM 46.4 °F - 46.4 °F 100% 30.39 in 3.0 mi WNW 1.2 mph - N/A   Partly Cloudy
7:55 AM 54.1 °F - 53.4 °F 97% 30.37 in 6.0 mi Variable 1.2 mph - N/A   Clear
8:55 AM 62.1 °F - 57.0 °F 84% 30.37 in 10.0 mi ESE 9.2 mph - N/A   Partly Cloudy
9:55 AM 71.6 °F - 58.5 °F 63% 30.36 in 10.0 mi SSE 10.4 mph - N/A   Clear
10:55 AM 71.6 °F - 58.8 °F 64% 30.36 in 10.0 mi SSE 11.5 mph - N/A   Mostly Cloudy
11:55 AM 72.1 °F - 59.2 °F 64% 30.34 in 10.0 mi South 8.1 mph - N/A   Scattered Clouds
12:55 PM 73.8 °F - 59.2 °F 60% 30.30 in 10.0 mi South 6.9 mph - N/A   Mostly Cloudy
1:55 PM 74.1 °F - 59.2 °F 59% 30.28 in 10.0 mi SSE 6.9 mph 15.0 mph N/A   Scattered Clouds
2:56 PM 73.9 °F - 58.5 °F 58% 30.26 in 10.0 mi South 6.9 mph - N/A   Mostly Cloudy
3:55 PM 72.7 °F - 59.9 °F 64% 30.25 in 10.0 mi Variable 2.3 mph - N/A   Clear
4:55 PM 67.6 °F - 59.0 °F 74% 30.23 in 10.0 mi SSE 2.3 mph - N/A   Clear
5:55 PM 64.0 °F - 58.1 °F 81% 30.22 in 10.0 mi SE 4.6 mph - N/A   Scattered Clouds
6:55 PM 65.1 °F - 58.6 °F 79% 30.24 in 10.0 mi South 6.9 mph - N/A   Scattered Clouds
7:55 PM 62.8 °F - 57.7 °F 84% 30.23 in 10.0 mi SSE 5.8 mph - N/A   Mostly Cloudy
8:55 PM 64.4 °F - 59.0 °F 83% 30.21 in 10.0 mi SSE 8.1 mph - N/A   Partly Cloudy
9:55 PM 64.0 °F - 59.2 °F 84% 30.22 in 10.0 mi SSW 4.6 mph - N/A   Clear
10:55 PM 63.5 °F - 59.7 °F 87% 30.21 in 10.0 mi South 5.8 mph - N/A   Mostly Cloudy
11:55 PM 63.0 °F - 59.5 °F 89% 30.19 in 10.0 mi SE 4.6 mph - N/A   Mostly Cloudy